Date String (YYYY-MM-DD hh:mm:ss) UTC,Instrument flags,Ambient pressure (hPa),Sample flow (lpm),Bypass flow (lpm),Sample temperature (°C),Ambient temperature (°C),ASC tube jacket temperature (°C),LED temperature (°C),Box temperature (°C),Sample RH (%),Span deviation,Mass concentration (μg/m³),Mass concentration (μg/m³),Mass concentration (μg/m³)
DateTimeUTC,F1_M11,P_M11,Q1_M11,Q2_M11,T1_M11,T2_M11,T3_M11,T4_M11,T5_M11,U1_M11,ZSPAN_M11,X0_M11,X2_M11,X1_M11
2021-12-03 02:00:00,,0826.1,5.01,0.00,30.3,26.6,00.0,39.3,31.4,08.1,0000.0,0013.11,0002.50,0001.08
2021-12-03 02:01:00,,0826.0,5.00,0.00,30.2,26.3,00.0,39.3,31.4,08.1,0000.0,0014.52,0002.51,0001.09
2021-12-03 02:02:00,,0826.1,5.00,0.00,30.0,26.6,00.0,39.2,31.4,08.2,0000.0,0015.22,0002.53,0001.10
2021-12-03 02:03:00,,0826.1,5.00,0.00,30.0,27.1,00.0,39.1,31.4,08.2,0000.0,0014.95,0002.61,0001.11
2021-12-03 02:04:00,,0826.0,5.00,0.00,29.9,27.5,00.0,39.1,31.4,08.2,0000.0,0014.03,0002.61,0001.11
2021-12-03 02:05:00,,0826.0,4.99,0.00,29.9,27.8,00.0,39.1,31.4,08.2,0000.0,0013.77,0002.65,0001.12
2021-12-03 02:06:00,,0826.1,5.01,0.00,29.9,28.0,00.0,39.1,31.5,08.3,0000.0,0013.38,0002.72,0001.12
2021-12-03 02:07:00,,0826.2,5.00,0.00,29.9,28.2,00.0,39.0,31.5,08.3,0000.0,0012.86,0002.75,0001.12
2021-12-03 02:08:00,,0826.2,4.98,0.00,29.9,28.4,00.0,39.0,31.6,08.3,0000.0,0012.92,0002.80,0001.13
2021-12-03 02:09:00,,0826.2,5.01,0.00,30.0,28.5,00.0,39.0,31.6,08.3,0000.0,0014.28,0002.78,0001.13
2021-12-03 02:10:00,,0826.2,5.00,0.00,30.0,28.7,00.0,39.0,31.7,08.3,0000.0,0015.64,0002.79,0001.12
2021-12-03 02:11:00,,0826.2,5.00,0.00,30.0,28.8,00.0,39.0,31.7,08.2,0000.0,0015.40,0002.87,0001.12
2021-12-03 02:12:00,,0826.2,5.01,0.00,30.0,28.8,00.0,39.0,31.7,08.2,0000.0,0014.68,0002.87,0001.11
2021-12-03 02:13:00,,0826.2,5.02,0.00,30.0,28.9,00.0,39.0,31.8,08.1,0000.0,0014.96,0002.86,0001.09
2021-12-03 02:14:00,,0826.2,4.99,0.00,30.0,29.0,00.0,39.0,31.8,07.9,0000.0,0014.67,0002.81,0001.07
2021-12-03 02:15:00,,0826.2,5.00,0.00,30.1,29.0,00.0,39.0,31.8,07.9,0000.0,0014.56,0002.75,0001.04
2021-12-03 02:16:00,,0826.2,5.01,0.00,30.1,29.1,00.0,39.0,31.8,07.9,0000.0,0015.14,0002.71,0001.02
2021-12-03 02:17:00,,0826.2,5.00,0.00,30.1,29.1,00.0,39.1,31.9,07.9,0000.0,0015.12,0002.59,0000.98
2021-12-03 02:18:00,,0826.2,5.00,0.00,30.1,29.1,00.0,39.1,31.9,07.9,0000.0,0016.24,0002.61,0000.97
2021-12-03 02:19:00,,0826.2,4.98,0.00,30.1,29.2,00.0,39.1,31.9,07.9,0000.0,0017.02,0002.60,0000.96
2021-12-03 02:20:00,,0826.2,5.00,0.00,30.1,29.2,00.0,39.1,31.9,07.9,0000.0,0015.87,0002.51,0000.94
2021-12-03 02:21:00,,0826.2,5.00,0.00,30.2,29.2,00.0,39.1,31.9,07.9,0000.0,0014.55,0002.38,0000.92
2021-12-03 02:22:00,,0826.2,5.00,0.00,30.2,29.3,00.0,39.1,32.0,07.9,0000.0,0013.70,0002.38,0000.92
2021-12-03 02:23:00,,0826.2,5.00,0.00,30.2,29.3,00.0,39.1,32.0,07.9,0000.0,0014.10,0002.47,0000.91
2021-12-03 02:24:00,,0826.2,5.00,0.00,30.2,29.3,00.0,39.1,32.0,07.9,0000.0,0013.54,0002.48,0000.90
2021-12-03 02:25:00,,0826.2,4.98,0.00,30.2,29.3,00.0,39.2,32.0,07.9,0000.0,0013.73,0002.45,0000.91
2021-12-03 02:26:00,,0826.2,5.02,0.00,30.3,29.4,00.0,39.2,32.0,07.9,0000.0,0014.58,0002.44,0000.92
2021-12-03 02:27:00,,0826.2,5.00,0.00,30.3,29.4,00.0,39.2,32.0,07.9,0000.0,0014.43,0002.40,0000.93
2021-12-03 02:28:00,,0826.2,4.99,0.00,30.3,29.4,00.0,39.2,32.0,07.9,0000.0,0014.43,0002.40,0000.94
2021-12-03 02:29:00,,0826.2,5.00,0.00,30.3,29.4,00.0,39.2,32.0,07.9,0000.0,0013.73,0002.37,0000.95
2021-12-03 02:30:00,,0826.2,5.00,0.00,30.3,29.4,00.0,39.2,32.1,07.9,0000.0,0012.54,0002.34,0000.94
2021-12-03 02:31:00,,0826.2,5.01,0.00,30.4,29.4,00.0,39.2,32.1,07.9,0000.0,0012.10,0002.35,0000.95
2021-12-03 02:32:00,,0826.1,5.00,0.00,30.4,29.4,00.0,39.2,32.1,07.9,0000.0,0011.96,0002.38,0000.96
2021-12-03 02:33:00,,0826.2,4.99,0.00,30.4,29.4,00.0,39.3,32.1,07.9,0000.0,0011.38,0002.30,0000.96
2021-12-03 02:34:00,,0826.2,5.00,0.00,30.4,29.4,00.0,39.3,32.1,07.8,0000.0,0010.83,0002.22,0000.96
2021-12-03 02:35:00,,0826.1,5.00,0.00,30.4,29.4,00.0,39.3,32.1,07.8,0000.0,0010.16,0002.22,0000.95
2021-12-03 02:36:00,,0826.1,5.00,0.00,30.4,29.4,00.0,39.3,32.1,07.8,0000.0,0010.17,0002.21,0000.94
2021-12-03 02:37:00,,0826.2,4.99,0.00,30.4,29.4,00.0,39.3,32.1,07.8,0000.0,0009.65,0002.23,0000.93
2021-12-03 02:38:00,,0826.2,4.99,0.00,30.4,29.4,00.0,39.3,32.1,07.7,0000.0,0009.49,0002.30,0000.91
2021-12-03 02:39:00,,0826.1,5.01,0.00,30.4,29.4,00.0,39.3,32.1,07.7,0000.0,0009.37,0002.24,0000.90
2021-12-03 02:40:00,,0826.1,5.00,0.00,30.4,29.4,00.0,39.4,32.1,07.7,0000.0,0009.56,0002.19,0000.88
2021-12-03 02:41:00,,0826.1,4.99,0.00,30.5,29.4,00.0,39.4,32.1,07.8,0000.0,0009.87,0002.17,0000.87
2021-12-03 02:42:00,,0826.1,5.01,0.00,30.5,29.4,00.0,39.4,32.1,07.8,0000.0,0009.92,0002.07,0000.87
2021-12-03 02:43:00,,0826.2,5.01,0.00,30.5,29.4,00.0,39.4,32.1,07.7,0000.0,0010.31,0002.07,0000.86
2021-12-03 02:44:00,,0826.2,5.01,0.00,30.5,29.4,00.0,39.4,32.2,07.7,0000.0,0010.54,0002.07,0000.85
2021-12-03 02:45:00,,0826.2,5.00,0.00,30.5,29.5,00.0,39.4,32.2,07.6,0000.0,0010.21,0002.03,0000.83
2021-12-03 02:46:00,,0826.2,4.98,0.00,30.5,29.5,00.0,39.4,32.2,07.6,0000.0,0010.52,0001.99,0000.82
2021-12-03 02:47:00,,0826.2,5.01,0.00,30.5,29.4,00.0,39.4,32.1,07.6,0000.0,0010.13,0001.90,0000.81
2021-12-03 02:48:00,,0826.1,5.00,0.00,30.5,29.4,00.0,39.4,32.1,07.7,0000.0,0009.84,0001.84,0000.80
2021-12-03 02:49:00,,0826.2,4.99,0.00,30.5,29.4,00.0,39.4,32.2,07.7,0000.0,0009.99,0001.85,0000.80
2021-12-03 02:50:00,,0826.2,5.01,0.00,30.5,29.5,00.0,39.4,32.2,07.8,0000.0,0010.43,0001.91,0000.81
2021-12-03 02:51:00,,0826.2,4.99,0.00,30.5,29.5,00.0,39.4,32.2,07.6,0000.0,0010.83,0001.95,0000.82
2021-12-03 02:52:00,,0826.2,5.00,0.00,30.5,29.4,00.0,39.4,32.1,07.6,0000.0,0010.58,0001.94,0000.80
2021-12-03 02:53:00,,0826.1,5.00,0.00,30.5,29.5,00.0,39.5,32.2,07.6,0000.0,0010.88,0001.96,0000.78
2021-12-03 02:54:00,,0826.2,5.01,0.00,30.5,29.5,00.0,39.5,32.2,07.6,0000.0,0010.86,0001.90,0000.76
2021-12-03 02:55:00,,0826.1,4.99,0.00,30.5,29.4,00.0,39.5,32.1,07.6,0000.0,0009.87,0001.87,0000.76
2021-12-03 02:56:00,,0826.1,5.00,0.00,30.5,29.5,00.0,39.5,32.1,07.5,0000.0,0009.64,0001.85,0000.74
2021-12-03 02:57:00,,0826.1,5.02,0.00,30.5,29.5,00.0,39.5,32.1,07.5,0000.0,0009.11,0001.81,0000.72
2021-12-03 02:58:00,,0826.2,4.99,0.00,30.5,29.5,00.0,39.5,32.1,07.5,0000.0,0008.91,0001.87,0000.72
2021-12-03 02:59:00,,0826.1,5.00,0.00,30.5,29.5,00.0,39.5,32.1,07.6,0000.0,0008.87,0001.89,0000.71
